Location: LewisvilleTX
(33.0462°N, 96.9942°W)
Time: 06:28:13
(UTC+00:00)

N. Korean satellite - Pass Details

Date: 09 December 2021
Orbit: 447 x 491 km, 97.3° (Epoch: 22 January)

Event Time Altitude Azimuth Distance (km) Brightness Sun altitude
Rises 11:52:17 0° 5° (N) 2,451 10.0 -17.8°
Reaches altitude 10° 11:54:20 10° 360° (N) 1,576 9.0 -17.4°
Maximum altitude 11:57:37 50° 284° (WNW) 579 6.5 -16.8°
Drops below altitude 10° 12:00:53 10° 208° (SSW) 1,576 9.0 -16.1°
Sets 12:02:57 0° 203° (SSW) 2,449 10.1 -15.7°
